Погода Екатерино-Никольское

Погода Екатерино-Никольское : погода сейчас, прогноз погоды и архив. Всё, что Вы хотите узнать о погоде Екатерино-Никольское!

Хотите узнать прогноз погоды Екатерино-Никольское? Тогда Вам сюда: Погода Екатерино-Никольское

Поиск расширенной информации на нашем сайте:

Другие новости

Новости СМИ2

Главная страница сайта

Новости сайта

03.07.2017

Напоминаем, что на нашем специализированном сайте Метеоцентр.Азия вы можете получить высокодетализированные автоматические прогнозы погоды по пунктам России, СНГ и мира в авиационном формате (включающие направление и скорость ветра, видимость, явления погоды, количество и форму облачности, нижнюю и верхнюю границу облачности).


Погода Екатерино-Никольское - сегодня

Время (UTC), дата Ветер
(°,м/с) 
Видим.   Явления Облачность Т
(°С)
Тd
(°С)
f(%) Тe
(°С)
Pmin
(гПа)
dP
(гПа)
Po
(мм)
O2
(г/м3)
Тmin Tmax R s Состояние
почвы
15 17.04.18 240 (ЮЗ) 20000 м    10/8 600 м средняя 
[Sc|Ac trans]
+11 +4.8 66 +11  1005.4  0.1  748  289           
18 17.04.18 170 (Ю) 20000 м    10/5 600 м средняя, верхняя 
[Sc|Ac trans|Ci fib]
+9 +3.2 67 +10  1004.8  -0.7  747  291           
03 18.04.18 320 (СЗ) 20000 м    10/6 600 м средняя, верхняя 
[Cu Sc|Ac As|Cs]
+20.2 -1.9 22 +20  1006.8  0.1  749  281           
06 18.04.18 360 (С) 3{10}  20000 м    10/3 600 м средняя, верхняя 
[Cu med, cong|Ac As|Cs]
+21.1 -6.6 15 +21  1005.5  -1.2  748  280           
12 18.04.18 360 (С) 20000 м    10/4 600 м средняя, верхняя 
[Sc|Ac As|Ci fib]
+11.2 +1.3 50 +12  1006.9  1.1  749  290           
15 18.04.18 310 (СЗ) 20000 м    6/0 средняя, верхняя 
[Ac As|Ci fib]
+6.8 -2.7 51 +7  1006.8  -0.2  749  295           
18 18.04.18 320 (СЗ) 20000 м    6/0 средняя, верхняя 
[Ac As|Ci fib]
+4.8 -3 57 +3  1006.5  -0.4  748  297           
00 19.04.18 030 (СВ) 20000 м    10/4 600 м средняя 
[Sc|Ac As]
+10.9 -4.8 33 +11  1007.9  1.6  749  291           
03 19.04.18 330 (СЗ) 20000 м    10/6 600 м средняя 
[Sc|Ac As]
+10.8 -2.7 39 +10  1009.2  1.3  750  291           
06 19.04.18 170 (Ю) 20000 м    10/3 600 м средняя, верхняя 
[Sc|Ac As|Ci fib]
+18.6 +0.1 29 +20  1007.9  -1  750  283           
12 19.04.18 200 (Ю) 20000 м    8/0 средняя, верхняя 
[Ac As|Ci fib]
+11.4 +2.5 54 +12  1011  2.3  752  290           
15 19.04.18 300 (СЗ) 20000 м    4/0 верхняя 
[Ci fib]
+6.2 +2 74 +6  1011.3  -0.1  752  296           
18 19.04.18 210 (ЮЗ) 20000 м    8/0 верхняя 
[Ci fib]
+3.4 +1 84 +4  1011.9  0.6  752  299           
00 20.04.18 190 (Ю) 20000 м    10/4 600 м средняя, верхняя 
[Sc|Ac trans|Ci fib]
+11.2 +5.1 66 +11  1010.7  -0.4  752  290           
03 20.04.18 200 (Ю) н/о    н/о 
+20.5 +4.7 35 +21  1008.7  -1.7  750  280           
06 20.04.18 190 (Ю) 5{11}  20000 м    8/8 600 м средняя, верхняя 
[Sc|Ac trans|Ci fib]
+21 +4.1 33 +21  1004.9  -3.7  747  279           
12 20.04.18 200 (Ю) 4{10}  20000 м    10/8 600 м средняя 
[Sc|Ac As]
+12.3 +9.6 84 +13  1004.9  0.3  747  286           
15 20.04.18 300 (СЗ) 10 км  слаб. дождь  10/0 средняя 
[As op]
+11.3 +8.9 85 +11  1004.6  -0.3  747  287           
21 20.04.18 320 (СЗ) 6{13}  10 км  слаб. дождь  10/10 600 м 
[Ns]
+5.3 -0.9 64 +3  1009.5  3.3  750  297  +5.3      влажная 
12 21.04.18 270 (З) 20000 м    6/0 верхняя 
[Ci fib]
+6 -9.1 33 +7  1021.9  3.5  760  300           
15 21.04.18 280 (З) 20000 м    6/0 верхняя 
[Ci fib]
+3.8 -9 39 +5  1023.6  1.6  761  303           
18 21.04.18 310 (СЗ) 20000 м    5/0 верхняя 
[Ci fib]
+3.3 -9.4 39 +2  1025.5  1.8  762  304           
03 22.04.18 350 (С) 20000 м    3/0 верхняя 
[Ci fib]
+14.4 -13.1 14 +14  1026.4  -1.3  763  293           
06 22.04.18 330 (СЗ) 2{10}  н/о    н/о 
+16.7 -12.4 12 +18  1023.8  -2.4  761  290           
09 22.04.18 180 (Ю) 20000 м    4/0 верхняя 
[Ci fib]
+15.2 -4.1 26 +15  1023  761  291           
Время (UTC), дата Ветер
(°,м/с) 
Видим.   Явления Облачность Т
(°С)
Тd
(°С)
f(%) Тe
(°С)
Pmin
(гПа)
dP
(гПа)
Po
(мм)
O2
(г/м3)
Тmin Tmax R s Состояние
почвы

Для получения пояснительной информации подведите курсор к названию столбца.

ПОГОДА Екатерино-Никольское - архив

Всё, что Вы хотите узнать о погоде Екатерино-Никольское - удобно и подробно!

Выберите нужную дату (начиная с 1 января 2015* года) и нажмите кнопку "Найти".
Будут отображены архивные сводки погоды по пункту Екатерино-Никольское, начиная с указанной даты.


Отображать данные в формате CSV (для использования в таблицах Excel)


Внимание! Наш архив погоды предназначен исключительно для личного некоммерческого использования в познавательных целях. Если Вам необходимы официальные справки о состоянии погоды (для производственных, юридических, коммерческих и т.п. целей), обращайтесь в органы Росгидромета.

*Примечание: данная дата относится к архиву по метеостанциям СССР (Россия, СНГ, Балтия).
Архив по метеостанциям Зарубежной Европы и Азии (кроме Китая) хранится 10 дней, по другим регионам земного шара (Китай, Африка, Америка, Австралия, Океания) - 1 день.

Екатерино-Никольское - район местоположения метеостанции


Название, широта, долгота, высота метеостанции:
Екатерино-Никольское 47.7°ш. 131°д. 73 м над ур. моря [Российская Федерация]

Дополнительная информация

В oтличие oт бoльшинства пoгoдных сайтoв мы публикуем пoдрoбную метеoинфoрмацию в детальнoм прoфессиoнальнoм фoрмате.

Характеристики температуры и влажнoсти вoздуха измеряются на высoте 2 м в тени вдали oт зданий и деревьев.
Скoрoсть ветра измеряется на высoте 10 м (на урoвне рoста челoвека скoрoсть ветра ниже в 1.5-2 раза). Если метеoстанция нахoдится в гoрoде или в лесу, тo скoрoсть ветра занижена на 2-4 м/с пo сравнению с oткрытым местoм. Скoрoсть ветра над акватoриями крупных рек и oзёр, а также на вершинах хoлмoв на 2-5 м/с выше, чем в oбычных услoвиях.
Атмoсфернoе давление в разных тoчках местнoсти мoжет значительнo oтличаться oт давления на метеoстанции, в зависимoсти oт услoвий рельефа (при пoдъёме на 10 м давление пoнижается примернo на 1 мм рт.ст.).